Location: Unspecified
(0.0000°N, 0.0000°E)
Time: 13:39:55
(UTC+00:00)

A-11 Canister half - Pass Details

Date: 30 May 2026
Orbit: 1515 x 1685 km, 47.2° (Epoch: 8 June)

Event Time Altitude Azimuth Distance (km) Brightness Sun altitude
Rises 04:43:05 0° 275° (W) 4,671 - -17.2°
Reaches altitude 10° 04:48:32 10° 249° (WSW) 3,718 - -16.0°
Maximum altitude 04:52:24 13° 224° (SW) 3,503 - -15.1°
Exits shadow 04:53:17 13° 218° (SW) 3,521 10.4 -14.9°
Drops below altitude 10° 04:56:20 10° 199° (SSW) 3,771 10.7 -14.2°
Sets 05:02:03 0° 173° (S) 4,799 11.4 -12.9°
